Quillayute, WA
on Thursday, January 10, 2013

Thursday
Previous Day Next Day
Daily Summary
 ActualAverageRecord
Temperature
Mean Temperature °F 41°F  
Max Temperature 46°F 47°F 57°F (1986)
Min Temperature 27°F 36°F 18°F (1993)
Degree Days
Heating Degree Days 28 24  
Month to date heating degree days 240  
Since 1 July heating degree days 2718  
Cooling Degree Days 0 0  
Month to date cooling degree days 0  
Year to date cooling degree days 0  
Moisture
Dew Point 32°F   
Average Humidity 92    
Maximum Humidity 100    
Minimum Humidity 65    
Precipitation
Precipitation T in 0.50 in 2.74 in (2014)
Month to date precipitation 4.77  
Year to date precipitation 4.77  
Wind
Wind Speed 2 mph   
Max Wind Speed 9 mph   
Max Gust Speed 12 mph   
Visibility 4 miles   
Events Fog   

Key: T is trace of precipitation, MM is missing value
Source: NWS Daily Summary
Time(PST)TemperatureDew PointHumidity Pressure Visibility Wind DirectionWind SpeedGust SpeedPrecipitationEvents Conditions
12:53 AM 35.1°F 34.0°F 96% 29.93 in 5.0 miles Calm Calm - 0.00 in   Overcast
2:10 AM 33.8°F 33.8°F 100% 29.95 in 6.0 miles ENE 3.5 mph - N/A   Partly Cloudy
2:53 AM 34.0°F 33.1°F 96% 29.97 in 6.0 miles East 3.5 mph - N/A   Overcast
3:14 AM 33.8°F 33.8°F 100% 29.97 in 6.0 miles Calm Calm - N/A   Overcast
3:53 AM 34.0°F 33.1°F 96% 29.98 in 6.0 miles Calm Calm - N/A   Overcast
4:53 AM 33.1°F 33.1°F 100% 29.99 in 5.0 miles ENE 3.5 mph - N/A   Overcast
5:53 AM 33.1°F 32.0°F 96% 30.01 in 6.0 miles Calm Calm - N/A   Overcast
6:53 AM 33.1°F 32.0°F 96% 30.04 in 5.0 miles Calm Calm - N/A   Overcast
7:20 AM 32.0°F 30.2°F 93% 30.04 in 6.0 miles Calm Calm - N/A   Scattered Clouds
7:27 AM 32.0°F 30.2°F 93% 30.04 in 6.0 miles Calm Calm - N/A   Mostly Cloudy
7:53 AM 32.0°F 30.9°F 96% 30.06 in 5.0 miles Calm Calm - N/A   Overcast
8:53 AM 34.0°F 33.1°F 96% 30.08 in 4.0 miles Calm Calm - N/A   Mostly Cloudy
9:53 AM 34.0°F 33.1°F 96% 30.09 in 4.0 miles Calm Calm - N/A   Overcast
10:53 AM 37.0°F 36.0°F 96% 30.10 in 5.0 miles Calm Calm - N/A   Mostly Cloudy
11:01 AM 37.4°F 35.6°F 93% 30.09 in 5.0 miles ESE 3.5 mph - N/A   Scattered Clouds
11:53 AM 41.0°F 37.0°F 86% 30.09 in 5.0 miles Calm Calm - N/A   Mostly Cloudy
12:53 PM 43.0°F 37.9°F 82% 30.06 in 4.0 miles SE 3.5 mph - N/A   Haze
1:07 PM 44.6°F 37.4°F 76% 30.06 in 5.0 miles Variable 3.5 mph - N/A   Haze
1:19 PM 44.6°F 37.4°F 76% 30.06 in 5.0 miles Calm Calm - N/A   Haze
1:35 PM 42.8°F 37.4°F 81% 30.06 in 4.0 miles Calm Calm - N/A   Haze
1:53 PM 43.0°F 37.0°F 80% 30.07 in 4.0 miles Calm Calm - N/A   Haze
2:40 PM 44.6°F 37.4°F 76% 30.07 in 5.0 miles NW 6.9 mph - N/A   Haze
2:53 PM 43.0°F 36.0°F 76% 30.08 in 4.0 miles West 4.6 mph - N/A   Haze
3:53 PM 43.0°F 35.1°F 74% 30.08 in 4.0 miles NW 3.5 mph - N/A   Haze
4:53 PM 37.9°F 35.1°F 89% 30.09 in 4.0 miles North 3.5 mph - N/A   Clear
5:53 PM 35.1°F 33.1°F 92% 30.09 in 6.0 miles North 5.8 mph - N/A   Clear
6:53 PM 33.1°F 32.0°F 96% 30.10 in 5.0 miles NNE 4.6 mph - N/A   Clear
7:53 PM 30.9°F 30.0°F 96% 30.11 in 5.0 miles East 3.5 mph - N/A   Clear
8:45 PM 30.2°F 30.2°F 100% 30.11 in 2.5 miles Calm Calm - N/A   Partly Cloudy
8:48 PM 30.2°F 30.2°F 100% 30.11 in 1.0 miles Calm Calm - N/A   Mist
8:53 PM 30.0°F 30.0°F 100% 30.12 in 0.2 miles Calm Calm - N/A Fog Light Freezing Fog
9:53 PM 28.0°F 28.0°F 100% 30.13 in 0.2 miles Calm Calm - N/A Fog Light Freezing Fog
10:12 PM 28.4°F 26.6°F 93% 30.12 in 1.0 miles ENE 3.5 mph - N/A   Mist
10:14 PM 28.4°F 28.4°F 100% 30.12 in 1.8 miles ENE 3.5 mph - N/A   Scattered Clouds
10:16 PM 28.4°F 28.4°F 100% 30.12 in 3.0 miles Calm Calm - N/A   Scattered Clouds
10:22 PM 28.4°F 28.4°F 100% 30.12 in 1.5 miles Calm Calm - N/A   Partly Cloudy
10:25 PM 28.4°F 28.4°F 100% 30.12 in 0.8 miles ESE 3.5 mph - N/A   Mist
10:49 PM 28.4°F 28.4°F 100% 30.12 in 1.5 miles East 3.5 mph - N/A   Scattered Clouds
10:51 PM 28.4°F 28.4°F 100% 30.13 in 3.0 miles East 3.5 mph - N/A   Scattered Clouds
10:53 PM 28.9°F 28.0°F 96% 30.14 in 4.0 miles ENE 4.6 mph - N/A   Scattered Clouds
11:53 PM 28.0°F 26.1°F 92% 30.14 in 6.0 miles Calm Calm - N/A   Clear
Moon Phase
Jan. 10 Jan. 11 Jan. 18 Jan. 26 Feb. 03
Sunrise:08:05 AM (PST) Moon Rise:06:50 AM (PST)1/10
Sunset:04:46 PM (PST) Moon Set:04:02 PM (PST)1/10

Copyright © 2014 The Weather Underground, Inc.